Tracking 18980 objects as of 19-Feb-2018
HD Live streaming from Space Station
objects crossing your sky now

FENGYUN 1C DEB

Track FENGYUN 1C DEB now!
10-day predictions


NORAD ID: 33707
Int'l Code: 1999-025DGU
Perigee: 599.6 km
Apogee: 754.6 km
Inclination: 99.1 °
Period: 98.1 minutes
Semi major axis: 7048 km
RCS: 0.0075 m2 (small)
Launch date: May 10, 1999
Source: People's Republic of China (PRC)
Launch site: Taiyaun Space Center, China (TSC)

Note: This is SATELLITE DEBRIS
aabbcc
Your satellite tracking list
Your tracking list is empty




NASA's NSSDC Master Catalog

Two Line Element Set (TLE):
1 33707U 99025DGU 18049.22986728 +.00001738 +00000-0 +29251-3 0  9992
2 33707 099.0910 060.6898 0109933 029.4889 331.2453 14.67226292561411
Source of the keplerian elements: AFSPC